Theta_e
320 321 321 322 321 320 320 319 320 320 321 320 319 321 322 323 325 327 328 329 329 329 329 330 330 329 328 332 335 333 331 329 329 325 326 326 322 320 319 317 314 312 311 311
319 320 321 321 320 321 319 320 319 319 318 319 318 320 320 323 324 326 327 328 329 329 331 331 332 332 332 333 335 333 331 327 327 327 326 321 321 320 318 315 312 312 311 311
322 322 321 320 321 319 319 320 321 320 319 317 322 320 321 322 324 324 325 326 327 329 330 331 333 333 333 333 333 331 328 327 326 325 322 321 321 319 315 314 312 312 311 309
321 322 321 320 318 319 321 322 321 321 322 321 322 323 323 324 323 324 325 326 326 328 330 331 333 334 332 331 330 329 329 328 324 322 321 320 317 316 315 313 312 311 310 309
322 321 320 319 322 322 322 322 322 322 320 324 323 324 325 325 325 325 326 327 327 328 329 331 332 332 332 331 330 327 324 323 321 318 318 318 316 314 313 311 309 307 305 303
320 321 322 323 322 322 323 323 323 321 322 328 324 324 326 325 324 326 325 326 327 328 329 331 330 329 327 326 323 322 319 317 317 317 317 316 313 311 309 309 305 306 299 298
320 320 321 322 320 322 321 321 323 328 329 328 323 323 327 324 325 327 327 326 327 329 329 328 325 323 323 322 320 317 316 316 316 315 315 314 311 306 310 310 303 299 297 297
323 325 321 321 320 323 324 320 326 328 328 326 324 324 322 326 325 323 326 327 328 328 326 324 321 320 319 319 318 316 316 315 313 311 309 307 309 311 307 301 297 296 296 295
324 324 323 322 322 321 319 322 322 323 325 327 321 320 323 324 323 322 327 327 327 326 323 321 319 319 319 318 317 316 315 313 310 306 305 309 310 303 299 297 296 296 295 294
324 324 323 322 321 321 321 321 324 323 323 323 320 320 324 324 323 323 326 327 326 325 322 320 319 319 318 318 316 315 314 311 307 306 308 309 306 301 298 297 298 296 295 294
321 323 322 322 322 319 322 321 321 320 327 331 328 320 320 320 322 323 324 327 325 324 322 320 319 319 319 317 316 315 313 308 306 306 308 306 301 300 299 299 298 297 296 295
321 320 328 322 322 322 322 324 321 332 324 329 330 322 320 320 319 321 322 324 325 324 322 321 320 319 318 317 316 314 310 307 306 305 306 302 301 300 299 299 298 297 297 296
322 322 325 323 324 323 322 320 321 322 326 327 331 325 320 319 318 318 320 321 324 324 323 321 320 319 317 316 315 312 309 308 306 304 303 301 301 300 299 299 298 298 297 296
322 322 321 326 323 323 324 321 320 321 329 325 323 319 319 320 320 319 319 319 321 322 323 322 321 319 317 316 314 311 308 307 305 303 302 301 300 300 299 299 298 297 297 296
322 323 321 321 321 322 322 321 321 320 321 322 322 319 319 318 319 318 318 319 318 319 322 322 322 320 318 316 314 311 308 307 305 305 301 300 300 299 299 298 297 296 296 295
323 326 325 325 322 322 321 321 321 320 319 319 319 319 319 319 318 318 317 317 318 317 318 320 321 321 318 315 314 311 308 307 306 303 300 300 299 299 298 297 295 295 295 295
327 330 326 325 320 321 321 322 320 321 319 319 320 320 319 319 318 318 317 317 317 317 317 318 319 320 318 315 313 311 308 307 306 302 300 300 299 298 297 295 295 294 294 294
327 327 327 327 318 323 318 318 318 318 318 319 318 318 318 318 318 317 316 316 316 317 317 317 317 317 316 314 312 310 307 306 304 301 300 298 298 296 294 293 294 294 294 294
322 325 327 328 323 319 317 317 316 316 317 317 317 317 317 316 316 317 317 317 316 315 315 315 315 316 315 314 312 309 306 304 302 300 298 298 295 295 293 293 293 293 293 294
317 323 328 322 328 327 321 317 316 317 317 316 315 316 316 316 323 319 317 316 315 315 314 315 315 315 314 313 311 307 304 302 299 299 296 296 294 292 293 293 293 293 293 293
323 324 323 324 326 325 318 316 315 318 322 317 316 316 316 318 317 317 317 316 315 315 315 315 315 314 313 310 307 303 300 299 297 296 297 294 292 293 293 293 293 292 292 293
323 326 323 327 323 322 315 315 318 322 317 316 316 316 316 316 316 316 315 316 315 313 314 313 312 308 303 301 301 300 298 295 296 294 293 292 291 292 292 292 291 292 292 293
324 324 328 323 324 318 315 315 315 315 315 315 315 315 315 315 315 316 316 316 312 312 308 305 304 302 299 299 298 298 297 294 293 293 293 290 290 291 290 290 290 290 291 292
320 318 323 321 316 316 316 315 315 314 315 316 316 316 317 317 316 316 315 313 309 304 301 300 299 299 298 298 298 295 294 292 293 293 291 290 290 290 290 290 291 290 291 292
322 318 318 318 317 316 315 316 316 316 316 317 317 316 313 313 314 314 309 304 301 301 299 298 299 298 298 298 298 296 294 293 292 290 290 290 290 290 290 291 291 291 290 289
319 318 324 324 318 318 317 317 316 316 314 312 312 309 306 307 305 306 302 301 299 299 299 298 299 298 298 296 294 293 292 290 290 290 290 290 290 290 290 291 291 291 290 289
Wind_Speed
11 6 6 7 10 2 8 14 19 12 11 9 10 15 15 18 14 16 21 27 24 18 17 15 13 14 12 18 19 19 20 17 14 12 8 6 7 10 9 7 5 5 1 4
4 6 8 15 10 15 13 9 8 9 6 7 10 11 15 15 18 20 19 27 23 24 19 15 14 14 14 15 19 18 18 14 13 11 10 10 10 7 9 7 2 4 3 6
4 13 21 15 17 15 11 5 8 9 7 9 6 11 16 15 19 19 20 19 20 24 21 17 15 15 16 19 18 15 13 17 15 15 14 15 14 12 9 1 2 6 11 9
3 24 15 11 11 12 8 12 5 7 11 7 5 8 10 7 14 15 18 21 20 23 20 19 17 21 19 18 15 16 15 15 20 16 13 9 8 13 13 10 8 2 7 7
6 10 11 8 5 9 4 15 10 16 9 5 9 9 10 11 11 15 18 19 19 19 21 20 21 16 19 20 20 22 22 18 16 13 17 15 10 9 9 6 2 3 9 13
6 15 19 13 12 10 11 10 14 10 10 2 15 10 11 10 19 11 18 16 16 18 19 20 20 22 22 22 24 23 19 17 17 17 19 19 18 16 10 8 8 13 11 12
5 16 6 11 9 5 8 9 5 8 5 8 8 9 8 20 10 12 19 23 20 19 22 24 26 24 24 24 24 22 20 19 19 20 21 20 15 10 6 10 7 11 10 10
6 13 12 8 11 7 19 10 3 7 4 9 3 5 2 21 21 42 37 25 24 22 23 26 25 24 23 22 22 22 22 19 17 17 17 13 7 7 8 6 8 5 9 11
5 4 17 7 5 4 6 7 7 2 14 6 3 13 10 9 9 1 25 24 24 24 24 25 25 24 23 22 23 24 22 21 19 17 15 9 7 6 7 7 6 7 9 11
10 7 22 8 5 5 6 8 3 2 2 4 8 10 5 5 4 2 10 19 22 23 24 25 24 23 22 21 22 22 22 23 21 20 12 8 7 6 7 5 7 8 11 13
7 16 6 6 8 9 6 7 7 6 3 1 3 3 6 7 6 4 6 20 22 25 25 25 25 25 22 21 23 24 24 23 23 20 12 9 9 10 6 7 8 10 13 12
8 4 4 9 2 4 8 10 12 3 5 2 1 6 3 5 4 2 6 12 23 26 26 26 26 23 22 23 24 25 24 24 22 17 12 12 13 9 10 9 9 11 14 12
3 3 4 8 8 7 8 11 9 4 3 5 3 4 4 4 1 2 5 8 14 22 24 27 28 25 24 25 26 24 25 23 18 16 15 16 14 12 9 10 12 14 14 14
4 5 8 6 10 5 12 12 11 11 3 3 8 13 8 10 9 9 9 7 11 17 20 24 27 27 25 25 26 25 25 22 20 19 16 13 14 12 11 12 14 15 15 17
2 7 11 13 15 3 12 9 10 13 10 10 10 14 12 8 5 1 2 11 9 13 21 22 24 25 25 26 25 26 26 22 22 17 16 15 14 13 13 12 14 17 18 20
4 1 4 3 10 14 12 15 13 15 13 13 15 14 12 9 11 11 7 6 5 11 11 15 16 18 22 23 26 26 25 24 20 18 19 15 13 12 12 19 18 18 17 17
6 3 2 2 5 7 6 9 16 15 15 11 11 10 9 6 2 4 6 8 4 10 11 12 14 18 21 23 25 26 25 24 18 19 16 11 11 12 19 15 15 17 17 18
4 3 1 1 1 1 9 1 6 6 9 11 12 10 9 11 12 6 8 9 9 4 7 9 12 17 20 20 21 23 23 18 20 15 12 12 13 10 15 17 15 16 18 18
6 4 1 2 4 7 11 4 1 1 4 12 10 11 12 13 9 10 9 4 5 5 6 10 12 15 16 18 19 21 18 14 15 14 9 9 9 20 16 13 15 17 19 19
3 4 1 3 2 4 0 5 3 1 3 10 11 9 9 6 3 5 11 8 6 10 12 11 12 12 13 15 16 14 16 16 10 8 7 8 14 16 14 15 16 18 19 18
3 1 4 3 2 5 2 4 1 2 3 7 7 10 9 4 7 5 9 11 12 12 11 9 4 5 9 13 15 14 14 12 8 9 6 9 11 12 16 17 20 19 15 16
5 5 3 2 2 6 5 5 2 4 3 8 7 8 9 7 11 13 14 12 8 11 7 1 7 9 12 10 14 15 12 5 3 9 7 12 15 16 15 19 17 16 14 15
2 4 2 7 4 5 7 3 3 2 4 6 7 8 8 9 11 12 13 11 5 6 7 5 8 11 11 12 12 6 3 6 4 8 15 19 18 17 16 17 20 18 10 14
4 4 1 2 4 7 9 5 5 2 3 5 8 9 7 8 10 12 11 5 5 9 9 9 7 7 6 5 5 7 5 4 7 12 17 18 16 16 17 18 16 17 15 16
1 9 6 6 9 10 2 9 9 6 6 5 6 7 8 8 8 8 8 11 10 11 10 5 1 4 5 3 2 1 2 8 14 16 16 15 16 16 16 15 16 21 22 18
8 4 3 3 8 4 9 9 8 7 8 8 7 9 13 12 10 7 11 7 4 2 0 0 3 2 0 2 3 7 12 14 16 15 15 16 16 17 17 15 19 22 25 24
Wind_Direction
195 196 209 323 258 17 241 245 221 192 173 212 200 153 169 178 194 162 172 164 162 177 175 168 173 172 167 162 178 192 197 209 211 174 171 191 152 122 147 187 176 162 116 334
186 275 149 217 245 244 253 234 154 114 167 232 225 175 171 187 191 179 187 173 179 174 160 173 177 173 175 173 192 203 208 202 144 144 162 145 153 142 179 228 159 250 266 272
88 279 289 265 209 241 257 288 219 160 186 214 11 245 173 186 198 203 195 191 185 173 166 175 181 178 176 189 203 227 175 146 139 160 157 161 170 185 202 344 315 275 301 301
239 228 253 228 207 231 270 338 216 274 215 202 210 222 187 1 212 200 200 202 194 178 173 178 184 184 191 202 195 157 152 154 164 162 169 165 173 174 158 155 196 287 324 305
189 301 242 248 344 319 119 273 274 245 258 75 357 303 186 191 246 218 215 202 199 176 176 179 182 180 170 162 163 162 164 166 162 170 172 171 177 159 181 185 197 251 264 274
245 258 274 107 231 254 171 231 250 276 269 135 227 204 153 196 221 264 197 207 200 178 171 171 170 165 165 164 166 167 161 161 163 168 173 181 171 165 181 232 284 293 295 285
242 241 191 171 209 211 233 246 238 7 335 270 292 160 223 210 186 127 222 190 180 171 166 167 163 166 167 171 171 164 166 165 173 185 190 193 195 204 256 296 297 284 270 284
165 263 180 202 237 125 272 255 236 168 293 309 35 265 85 158 195 176 202 170 168 171 173 172 171 176 176 175 173 170 174 169 171 178 185 185 208 269 276 270 268 272 284 291
1 193 279 343 263 281 289 244 300 316 198 285 279 265 129 83 102 210 154 163 169 177 181 179 182 183 183 183 182 180 176 177 180 183 192 209 254 246 245 249 276 271 288 297
167 313 248 195 244 251 265 337 305 277 295 272 299 312 109 152 108 132 164 163 174 181 187 190 188 190 191 190 191 186 187 187 184 199 205 229 253 236 233 258 267 284 294 299
241 219 154 139 216 249 181 242 242 302 250 353 333 318 36 48 61 141 228 172 180 185 194 193 198 194 195 196 200 194 194 193 195 207 210 239 205 219 236 243 262 290 287 306
251 308 266 236 293 315 319 284 211 156 274 151 352 276 48 97 76 148 236 209 186 190 196 195 197 197 200 204 204 200 199 202 203 213 220 215 202 204 224 249 269 274 287 298
274 235 260 285 198 212 246 255 264 263 72 207 176 262 159 155 247 240 240 233 203 193 199 200 196 199 203 206 207 205 204 208 211 205 221 205 212 217 248 265 274 275 288 291
334 246 252 239 254 334 208 239 243 233 149 233 256 269 243 202 211 197 192 264 236 209 216 209 195 198 205 209 210 211 211 213 216 221 216 215 223 230 246 261 274 281 285 282
237 241 266 274 268 268 293 284 236 239 236 234 253 260 270 337 4 168 105 189 240 265 212 223 206 201 203 210 212 213 216 219 217 232 220 225 237 247 261 280 276 275 277 285
193 231 325 306 294 288 271 278 274 275 272 253 268 269 278 38 24 20 353 297 245 274 273 241 228 218 211 212 217 216 218 221 233 219 225 227 238 245 256 282 282 281 288 288
157 135 138 238 25 342 318 243 252 264 266 262 262 271 291 305 143 10 317 305 246 278 279 269 240 233 229 224 222 217 220 221 224 222 229 241 247 263 291 302 287 284 284 282
110 156 113 101 315 279 247 325 321 286 289 281 288 302 319 37 53 5 302 295 312 244 283 272 252 241 235 230 226 221 219 227 218 220 231 237 276 278 288 285 286 291 290 286
163 137 150 150 219 288 312 309 342 320 309 28 18 19 29 47 23 38 40 26 357 359 308 283 269 246 235 230 225 214 207 222 218 212 245 269 280 300 296 292 291 290 287 285
90 51 189 162 236 229 195 68 21 360 233 48 28 25 2 10 7 38 31 21 332 310 307 295 276 252 235 221 210 209 199 205 198 223 222 264 307 293 295 286 281 277 278 283
100 208 188 158 241 297 334 116 333 230 63 45 3 352 346 340 9 350 337 334 341 327 311 305 267 221 195 193 192 181 182 180 203 192 261 304 295 288 284 287 281 286 290 284
169 159 190 155 145 268 142 120 143 65 346 1 343 342 341 318 311 312 313 318 328 337 334 132 186 165 147 158 172 159 136 118 44 4 312 288 284 282 283 281 302 300 285 278
199 190 182 175 205 153 188 24 23 329 314 323 320 317 325 323 315 322 325 323 5 32 90 116 147 157 151 154 161 132 92 40 7 285 282 287 286 284 292 297 304 294 284 286
220 105 196 50 238 212 218 242 302 333 337 351 343 329 334 343 340 328 332 49 76 105 98 151 156 158 157 142 140 105 72 256 270 284 284 291 293 303 304 311 316 311 280 273
9 150 202 220 259 286 49 53 72 32 1 357 4 12 38 13 4 26 75 100 110 141 149 135 144 148 143 114 12 240 281 279 273 286 296 302 304 306 309 307 294 297 298 296
191 216 168 214 79 11 52 66 43 58 56 45 49 61 52 62 86 132 114 132 147 96 344 346 156 160 293 28 337 273 276 294 303 301 301 302 306 304 305 307 297 291 301 305